Regional Weather Roundup
Issued by NWS

Home | Current Version | Previous Version | Text Only | Print | Product List | Glossary On
Versions: 1 2 3 4 5 6 7 8 9 10 11 12 13 14 15 16 17 18 19 20 21 22 23 24 25 26 27 28 29 30 31 32 33 34 35 36 37 38 39 40 41 42 43 44 45 46 47 48 49 50
000
ASUS43 KLOT 012206
RWRIL

ILLINOIS REGIONAL WEATHER ROUNDUP
NATIONAL WEATHER SERVICE CHICAGO/ROMEOVILLE IL
500 PM CDT WED OCT 01 2014

NOTE: "FAIR" INDICATES FEW OR NO CLOUDS BELOW 12,000 FEET WITH NO
SIGNIFICANT WEATHER AND/OR OBSTRUCTIONS TO VISIBILITY.

* THESE STATIONS ARE NOT UNDER NWS QUALITY CONTROL. THEY ALSO MAY NOT
  REPORT WEATHER SUCH AS PRECIPITATION OR FOG.

ILZ001-002-007-009-015-016-024-012300-
NORTHWEST ILLINOIS

CITY           SKY/WX    TMP DP  RH WIND       PRES   REMARKS
MOLINE         CLOUDY    71  60  68 VRB3      29.80F
SAVANNA*       CLOUDY    74  58  56 SW6       29.83R
$$

ILZ003-004-008-010-011-017-018-012300-
NORTH CENTRAL ILLINOIS

CITY           SKY/WX    TMP DP  RH WIND       PRES   REMARKS
ROCKFORD       CLOUDY    72  54  53 SE13      29.86F
FREEPORT*      PTSUNNY   71  56  58 SE9       29.85F
ROCHELLE*      CLOUDY    73  55  53 SE8       29.84F
DE KALB*       PTSUNNY   69  55  61 SE10G18   29.87F
PERU*          CLOUDY    76  59  54 SE5       29.83F
$$

ILZ005-006-012>014-019>023-012300-
NORTHEAST ILLINOIS

CITY           SKY/WX    TMP DP  RH WIND       PRES   REMARKS
CHICAGO-OHARE  PTSUNNY   67  52  58 SE13      29.89F
CHICAGO-MIDWAY PTSUNNY   73  55  53 SE15      29.89F
AURORA         MOSUNNY   72  55  55 SE12      29.86F
LANSING*       PTSUNNY   70  55  57 SE12      29.91F
JOLIET*        MOSUNNY   72  55  55 SE9       29.87F
WAUKEGAN       NOT AVBL
DUPAGE AIRPORT MOSUNNY   70  55  59 SE8       29.88F
WHEELING       PTSUNNY   67  53  61 SE8       29.91F
MORRIS*        MOSUNNY   74  59  59 E8        29.84F
ROMEOVILLE*    MOSUNNY   71  54  54 SE9       29.88F
NORTHERLY ISL    N/A     65  57  75 E9          N/A
$$

LMZ740>746-012300-
SOUTHERN LAKE MICHIGAN

STATION/POSITION SKY/WX   TEMP    WIND        PRES    VSBY  WAVE
                          AIR SEA DIR/SP/G                  HT/PER
                          (F)     (DEG/KT/KT) (MB)    (MI)  (FT/S)
SOUTHERN BUOY              60 61  110/ 12/ 14 1013.9S         2/ 3
WAUKEGAN HARBOR            61     120/ 12/ 13   N/A
HARRISON CRIB              63      90/ 14/ 15   N/A
CALUMET HARBOR             70     120/  7/ 11 1011.5F
MICHIGAN CITY              67     110/ 11/ 16   N/A
$$

ILZ025>027-034>036-040-047-049-050-058-095>099-012300-
WEST-CENTRAL ILLINOIS

CITY           SKY/WX    TMP DP  RH WIND       PRES   REMARKS
QUINCY         TSTM      65  64  97 CALM      29.87R VSB 3/4
GALESBURG*     LGT RAIN  68  61  79 S8        29.82F
MACOMB*        CLOUDY    64  64  97 CALM      29.87S FOG
JACKSONVILLE*  CLOUDY    69  66  91 CALM      29.83F FOG
PITTSFIELD*    CLOUDY    67  64  89 NW5       29.83S FOG
$$

ILZ028>032-037-038-041>044-048-051>054-059>061-012300-
CENTRAL ILLINOIS

CITY           SKY/WX    TMP DP  RH WIND       PRES   REMARKS
PONTIAC        PTSUNNY   81  55  41 SE6       29.85S HX  80
DECATUR        PTSUNNY   81  59  47 S8        29.86S HX  81
PEORIA         LGT RAIN  73  63  70 SW6       29.84S
LACON*         CLOUDY    75  60  58 SE5       29.82F
LINCOLN*       CLOUDY    80  58  46 S3        29.82R HX  80
SPRINGFIELD    CLOUDY    82  62  50 E5        29.83F HX  83
TAYLORVILLE    MOSUNNY   81  61  50 SE10      29.84S HX  81
$$

ILZ033-039-045-046-055>057-062-063-012300-
EAST-CENTRAL ILLINOIS

CITY           SKY/WX    TMP DP  RH WIND       PRES   REMARKS
DANVILLE*      MOSUNNY   78  58  48 SE7       29.87S HAZE
RANTOUL*       MOSUNNY   82  50  32 S7        29.88S HX  81
MATTOON        MOSUNNY   81  57  43 SE10      29.87S HX  81
PARIS*         MOSUNNY   82  56  41 SE8       29.89F HX  81
$$

ILZ079-100>102-012300-
SOUTHWEST ILLINOIS

CITY           SKY/WX    TMP DP  RH WIND       PRES   REMARKS
BELLEVILLE     SUNNY     85  65  51 E8        29.81R HX  87
CAHOKIA*       SUNNY     87  64  46 S12       29.79S HX  88
SPARTA*        MOSUNNY   85  63  47 S13       29.84S HX  86
$$

ILZ064>066-069>071-074>076-080>082-084>086-088>090-092>094-012300-
SOUTH-CENTRAL ILLINOIS

CITY           SKY/WX    TMP DP  RH WIND       PRES   REMARKS
CARBONDALE     SUNNY     84  61  45 S12       29.86R HX  84
CAIRO*         SUNNY     85  62  44 S7        29.86R HX  86
EFFINGHAM*     SUNNY     82  56  39 S5        29.87S HX  82
MARION         MOSUNNY   86  63  45 S8        29.88R HX  87
CENTRALIA*     SUNNY     83  59  43 SE10      29.86R HX  83
SALEM*         SUNNY     85  64  49 S7        29.87R HX  86
METROPOLIS*    MOSUNNY   87  60  40 S5        29.86S HX  87
$$

ILZ067-068-072-073-078-083-087-091-012300-
SOUTHEAST ILLINOIS

CITY           SKY/WX    TMP DP  RH WIND       PRES   REMARKS
LAWRENCEVILLE  MOSUNNY   84  56  38 S7        29.89F HX  83
FLORA*         SUNNY     84  56  38 S9        29.88R HX  83
FAIRFIELD*     MOSUNNY   84  61  45 S6        29.87R HX  84
HARRISBURG*    SUNNY     85  58  39 S8        29.88S HX  84
ROBINSON*      SUNNY     83  60  46 SE6       29.89F HX  83
CARMI*         SUNNY     88  59  37 SE5       29.87F HX  87
$$

ABBREVIATIONS USED IN REMARKS
   TC - TEMPERATURE IN CELSIUS
  WCI - WIND CHILL INDEX
   HX - HEAT INDEX
  VSB - VISIBILITY
$$




USA.gov is the U.S. government's official web portal to all federal, state and local government web resources and services.